Vertical_Velocity
-1 -1 -1 -0 -0 0 0 1 1 1 1 0 0 -0 -0 -0 -0 0 -0 -0 -0 -0 -0 -1 -1 -1 -1 -1 -0 -0 -0 -1 -1 -1 -2 -2 -2 -2 -2 -3 -3 -2 -1 -0 0 0 1 1 3 4 4 4 3 2 1 1 2 2 1 -0 -2 -5 -7 -6 -4 -2 -1 1 1
-2 -2 -1 -1 -0 -0 0 0 1 1 1 0 0 -0 -0 -0 -0 0 0 0 0 -0 -0 -0 -1 -1 -1 -0 -1 -1 -1 -1 -1 -1 -1 -1 -1 -2 -2 -3 -3 -3 -2 -1 -1 -0 -0 -0 0 2 3 4 4 3 2 1 1 1 1 0 0 -1 -3 -6 -6 -5 -3 -1 -0
-3 -2 -2 -1 -1 -0 -0 0 0 1 1 1 0 -0 -0 -1 -0 -0 0 0 0 0 -0 -0 -1 -1 -1 -0 -1 -1 -1 -1 -1 -1 -1 -1 -1 -1 -2 -2 -3 -3 -3 -2 -1 -1 -1 -1 -1 -0 1 3 3 3 2 1 1 1 0 -0 -1 -1 -1 -1 -3 -4 -4 -3 -2
-3 -3 -2 -2 -1 -1 -0 -0 0 0 1 1 1 0 -0 -1 -1 -0 -0 0 0 0 0 -0 -0 -1 -1 -1 -1 -1 -1 -1 -1 -0 -0 -0 -1 -1 -1 -2 -2 -3 -3 -3 -2 -2 -1 -1 -1 -1 -0 1 2 3 3 2 1 1 1 0 -1 -1 -1 -1 -1 -1 -2 -2 -2
-4 -4 -3 -2 -2 -1 -1 -0 0 0 1 1 1 1 0 -1 -1 -0 -0 0 0 0 0 0 -0 -0 -0 -1 -1 -1 -1 -1 -1 -1 -0 -0 -0 -0 -1 -1 -2 -2 -2 -3 -3 -2 -2 -1 -1 -1 -1 -0 0 2 2 3 2 2 2 1 0 -0 -1 -1 -1 -1 -0 -0 0
-5 -4 -4 -3 -2 -1 -1 -0 -0 0 0 1 1 1 0 -0 -0 -0 -0 -0 0 0 1 1 0 0 -0 -0 -1 -1 -1 -1 -1 -1 -1 0 0 -0 -0 -1 -1 -1 -2 -2 -2 -2 -2 -2 -2 -1 -1 -0 -0 0 1 2 3 3 3 2 1 1 0 -0 -1 -1 -1 -1 -1
-6 -5 -4 -3 -2 -2 -1 -0 -0 0 0 1 1 1 0 0 -0 -0 -0 0 0 0 1 1 1 0 0 -0 -1 -1 -1 -1 -1 -1 -1 -0 0 0 0 -0 -1 -1 -1 -1 -1 -2 -2 -2 -2 -2 -1 -1 -0 -0 -0 0 2 2 3 3 2 2 1 0 -0 -1 -1 -2 -2
-5 -5 -4 -4 -3 -2 -1 -1 -0 0 0 0 0 0 0 0 0 0 0 1 0 0 0 1 1 1 0 -0 -1 -1 -1 -1 -1 -1 -1 -1 -0 0 0 0 -0 -1 -1 -1 -1 -1 -1 -2 -2 -3 -2 -2 -1 -1 -1 -1 0 1 2 3 3 3 2 1 0 -0 -1 -1 -2
-4 -5 -5 -4 -3 -2 -2 -1 -1 -0 0 0 0 0 0 0 0 1 1 1 1 0 0 1 1 1 0 -0 -1 -1 -1 -1 -1 -1 -1 -1 -1 -0 0 0 0 -0 -1 -1 -1 -1 -1 -1 -1 -2 -2 -3 -2 -2 -2 -1 -1 -0 0 1 2 3 3 2 1 1 0 -0 -1
-1 -3 -4 -4 -3 -3 -2 -1 -1 -0 0 0 0 0 0 0 1 1 1 1 1 1 0 0 1 1 1 0 -0 -1 -1 -1 -1 -1 -1 -1 -1 -1 -1 -0 -0 -0 -0 -1 -1 -1 -1 -0 -0 -1 -2 -2 -2 -2 -2 -2 -2 -1 -1 -1 0 2 3 3 3 2 1 1 -0
0 -1 -2 -3 -3 -2 -2 -1 -1 -1 -0 0 0 0 1 1 1 1 1 2 2 1 1 0 1 1 1 0 -0 -1 -1 -1 -1 -1 -1 -1 -1 -1 -1 -1 -1 -1 -0 -1 -1 -1 -1 -1 -0 0 -0 -1 -2 -2 -2 -2 -2 -2 -2 -2 -1 0 1 2 3 3 3 2 1
1 -0 -1 -2 -2 -2 -2 -1 -1 -1 -0 -0 -0 0 0 0 1 1 1 1 2 1 1 0 1 1 1 0 -0 -1 -1 -1 -1 -1 -1 -1 -1 -1 -1 -1 -1 -1 -1 -1 -1 -1 -1 -1 -1 0 0 0 -1 -1 -2 -2 -2 -2 -2 -2 -2 -1 -1 0 1 2 3 3 2
1 -0 -1 -2 -2 -2 -1 -1 -1 -1 -1 -1 -0 -0 0 0 0 1 1 1 2 2 1 1 0 0 0 0 -0 -0 -1 -1 -1 -1 -1 -1 -1 -1 -0 -0 -0 -1 -1 -1 -1 -2 -2 -2 -2 -1 -0 0 0 -0 -1 -1 -2 -2 -3 -3 -3 -3 -2 -2 -1 -0 1 2 3
-0 -1 -1 -2 -2 -2 -2 -1 -1 -1 -1 -1 -1 -0 -0 0 0 1 1 1 2 2 2 1 1 0 0 0 0 -0 -0 -1 -1 -1 -1 -1 -1 -1 -0 -0 -0 -0 -0 -0 -1 -2 -2 -3 -2 -2 -1 -1 -0 0 -0 -0 -1 -1 -2 -3 -3 -3 -3 -3 -3 -2 -1 -0 1
-1 -2 -2 -2 -3 -3 -3 -2 -2 -2 -1 -1 -1 -1 -0 0 1 1 1 2 2 2 2 2 2 1 1 1 0 0 0 -0 -1 -1 -1 -1 -1 -1 -0 -0 -0 0 0 0 0 -1 -2 -3 -3 -3 -3 -2 -1 -0 -0 -0 0 -0 -0 -1 -2 -3 -3 -3 -3 -3 -3 -3 -1
-2 -2 -2 -3 -3 -3 -3 -3 -3 -2 -2 -2 -1 -1 -0 0 1 1 1 2 2 3 3 3 3 2 2 1 1 1 1 0 -0 -0 -0 -1 -0 -0 -0 -0 -0 0 0 0 0 -0 -1 -2 -3 -3 -3 -3 -2 -2 -1 -1 -0 0 0 0 -0 -1 -2 -3 -3 -3 -3 -3 -3
-2 -3 -3 -3 -3 -3 -4 -3 -3 -3 -3 -2 -2 -1 -1 -0 0 1 1 1 2 2 3 3 3 3 3 2 1 1 1 0 0 0 -0 -0 -0 -0 -0 0 0 0 0 0 -0 -0 -0 -1 -2 -3 -3 -3 -3 -3 -2 -2 -1 -0 0 1 1 0 -1 -2 -2 -3 -3 -3 -3
-3 -3 -3 -3 -3 -3 -3 -3 -3 -3 -3 -3 -3 -2 -1 -1 -0 0 1 1 1 1 1 2 2 2 2 1 1 1 0 0 0 0 -0 -0 -0 -0 -0 0 0 0 0 -0 -0 -0 -1 -1 -2 -3 -3 -3 -3 -3 -3 -2 -2 -2 -1 -0 1 1 0 -0 -1 -2 -2 -2 -2
-3 -3 -3 -3 -3 -3 -3 -3 -3 -3 -3 -3 -3 -3 -2 -1 -1 -0 -0 -0 -0 -0 -0 0 0 0 0 0 0 0 -0 -0 -1 -0 -0 -0 -0 -0 -0 -0 -0 0 0 -0 -1 -1 -1 -1 -2 -2 -3 -3 -3 -3 -2 -2 -2 -2 -2 -1 -0 0 1 1 0 -1 -2 -2 -2
-3 -3 -3 -3 -3 -3 -3 -3 -2 -2 -2 -3 -3 -3 -2 -2 -1 -1 -1 -0 -1 -1 -1 -1 -1 -0 -0 -0 -0 -0 -0 -1 -1 -1 -1 -0 -0 -1 -1 -1 -1 -0 -0 -0 -1 -1 -1 -1 -2 -2 -3 -3 -3 -3 -2 -2 -2 -2 -2 -2 -1 -1 -0 0 1 0 -1 -1 -2
-3 -3 -3 -3 -3 -3 -2 -2 -2 -2 -2 -2 -2 -2 -1 -1 -1 -0 -0 -0 -0 -0 -1 -1 -1 -1 -1 -1 -1 -1 -1 -1 -1 -1 -1 -1 -1 -1 -1 -2 -2 -1 -1 -0 -1 -1 -1 -1 -1 -2 -2 -3 -3 -3 -3 -2 -2 -2 -1 -1 -1 -1 -1 -1 0 0 0 -0 -1
-3 -3 -3 -3 -2 -2 -2 -2 -2 -1 -1 -1 -1 -1 -0 -0 0 0 1 1 0 0 -0 -1 -1 -1 -1 -1 -1 -1 -1 -0 -0 -1 -1 -2 -1 -1 -2 -2 -2 -2 -1 -1 -1 -1 -2 -2 -1 -1 -1 -2 -3 -3 -3 -3 -3 -2 -2 -1 -1 -1 -1 -1 -1 -0 0 -0 -1
-2 -2 -2 -2 -2 -2 -2 -2 -2 -1 -1 -1 -0 -0 0 0 0 1 1 1 1 0 0 0 -0 -0 -0 -1 -1 -1 -1 -1 -0 -0 -0 -1 -2 -2 -2 -2 -2 -2 -2 -1 -1 -2 -2 -3 -2 -1 -1 -1 -2 -2 -3 -3 -3 -3 -2 -2 -1 -0 -0 -0 -1 -1 -0 -0 -0
-2 -2 -2 -1 -1 -1 -1 -1 -1 -1 -1 -1 -0 -0 0 0 0 1 1 1 1 1 0 0 0 0 -0 -0 -0 -1 -1 -2 -1 -1 -0 -0 -1 -1 -2 -2 -2 -2 -2 -1 -1 -1 -2 -4 -4 -3 -2 -1 -1 -1 -2 -2 -2 -3 -3 -3 -2 -1 -0 0 0 -0 -1 -1 -1
-2 -2 -2 -1 -1 -1 -1 -1 -1 -1 -1 -1 -0 -0 -0 -0 -0 0 0 1 1 1 0 0 0 0 0 0 0 -0 -1 -1 -2 -2 -2 -1 -0 -0 -1 -1 -1 -1 -1 -1 -1 -1 -2 -3 -4 -4 -4 -3 -2 -2 -1 -1 -1 -2 -2 -3 -3 -2 -2 -0 1 1 0 -1 -1
-2 -2 -1 -1 -1 -1 -1 -1 -1 -1 -1 -1 -0 -0 -0 -0 -0 -0 -0 -0 -0 0 0 -0 -0 -0 -0 -0 0 0 0 -0 -1 -2 -3 -3 -2 -1 -0 -0 -0 -1 -1 -0 -0 -1 -1 -1 -2 -3 -4 -5 -5 -4 -3 -2 -1 -1 -2 -2 -3 -3 -3 -2 -0 1 2 1 -0
-2 -2 -1 -1 -1 -1 -1 -1 -1 -1 -1 -1 -0 -0 -0 -0 -0 -0 -0 -1 -0 -0 -0 -0 -0 -0 -0 -0 -0 -0 -0 0 -0 -1 -2 -3 -3 -3 -2 -1 -1 -0 -0 -0 -0 -0 -0 -0 -0 -1 -2 -4 -5 -5 -5 -4 -2 -1 -1 -2 -2 -2 -2 -3 -2 -0 1 1 1
-2 -1 -1 -1 -1 -1 -1 -1 -1 -1 -1 -1 -1 -0 -0 -0 -0 -1 -1 -1 -1 -1 -0 -0 -0 -0 -0 -0 -0 -0 -0 0 0 -0 -1 -1 -2 -2 -2 -2 -1 -0 0 1 0 0 -0 -0 -0 -0 -1 -2 -3 -5 -5 -5 -3 -2 -1 -1 -2 -2 -2 -2 -2 -2 -1 -0 1
-2 -2 -1 -1 -1 -1 -1 -2 -2 -2 -2 -2 -1 -1 -1 -1 -1 -1 -1 -1 -1 -1 -1 -1 -0 -0 0 0 -0 0 0 0 -0 -0 -1 -1 -1 -1 -1 -1 -1 -0 1 1 1 1 0 0 -0 -0 -0 -0 -2 -3 -4 -4 -4 -3 -2 -2 -1 -1 -1 -2 -2 -1 -1 -1 -1
-2 -2 -2 -2 -1 -1 -1 -1 -2 -2 -2 -2 -2 -2 -2 -2 -1 -1 -2 -2 -2 -1 -1 -1 -1 -1 -0 -0 -0 -0 -0 0 0 -0 -0 -1 -1 -1 -0 -0 -0 -0 0 1 1 1 0 0 -0 -0 -0 0 -1 -2 -3 -3 -3 -3 -3 -3 -2 -1 -1 -1 -1 -1 -1 -1 -1
-3 -3 -2 -2 -2 -2 -2 -2 -2 -2 -2 -3 -2 -2 -2 -2 -2 -2 -2 -3 -3 -2 -2 -2 -2 -1 -1 -0 -1 -0 -0 -0 0 0 0 -1 -1 -1 -1 -0 -0 0 0 0 1 0 0 0 0 -0 -0 -0 -1 -2 -2 -3 -3 -3 -3 -3 -2 -1 -1 -1 -1 -1 -1 -1 -1
-3 -3 -3 -3 -3 -2 -2 -2 -2 -3 -3 -3 -3 -3 -3 -3 -2 -2 -2 -3 -3 -3 -3 -2 -2 -2 -1 -1 -1 -1 -0 -0 -0 0 0 -0 -1 -1 -1 -1 -0 0 0 0 0 0 -0 -0 -0 -0 -0 0 -1 -1 -2 -2 -3 -3 -3 -3 -2 -1 -1 -0 -1 -1 -0 -0 -0
-3 -3 -3 -3 -3 -2 -2 -2 -2 -3 -3 -3 -3 -3 -3 -3 -3 -2 -2 -2 -2 -3 -3 -2 -3 -2 -2 -2 -3 -2 -2 -1 -1 -0 -0 -0 -1 -1 -2 -2 -0 0 0 0 -0 -0 -1 -1 -1 -1 -0 -0 -1 -1 -2 -2 -2 -3 -3 -3 -2 -1 -1 -0 -0 -0 -0 0 0
-3 -3 -2 -2 -2 -2 -2 -2 -2 -2 -3 -3 -2 -2 -3 -3 -3 -3 -2 -1 -2 -2 -2 -2 -2 -2 -2 -2 -3 -3 -3 -3 -2 -1 -1 -0 -1 -2 -2 -2 -1 -0 0 0 -0 -1 -1 -1 -1 -1 -1 -1 -1 -1 -2 -2 -2 -2 -3 -3 -3 -2 -1 -0 -0 0 0 1 1
-3 -3 -2 -2 -1 -1 -1 -1 -1 -2 -2 -2 -2 -2 -1 -2 -2 -2 -2 -2 -2 -2 -1 -1 -1 -1 -1 -1 -2 -3 -3 -3 -3 -2 -1 -1 -1 -2 -3 -3 -2 -0 0 1 0 -0 -1 -0 -0 -0 -0 -0 -1 -1 -1 -2 -2 -3 -3 -3 -3 -3 -2 -1 -1 -0 0 1 1
-2 -2 -2 -2 -1 -1 -0 -0 -1 -1 -1 -1 -1 -1 -1 -1 -1 -1 -1 -2 -2 -2 -1 -1 -1 -1 -1 -1 -1 -1 -2 -2 -3 -3 -2 -1 -1 -2 -4 -4 -3 -1 0 1 1 0 -0 -0 0 1 0 -0 -1 -1 -1 -1 -2 -3 -3 -3 -3 -3 -2 -1 -1 -1 -0 0 1
-2 -2 -2 -2 -1 -1 -0 -0 -0 -1 -1 -1 -1 -1 -1 -1 -1 0 1 -0 -2 -2 -2 -2 -1 -1 -0 -1 -2 -1 -1 -1 -2 -3 -2 -1 -1 -2 -4 -5 -4 -3 -0 1 1 1 0 -0 1 1 1 -0 -1 -1 -1 -1 -2 -3 -4 -4 -4 -3 -2 -1 -1 -1 -1 -0 1
-1 -1 -1 -1 -1 -1 -1 -0 -0 -1 -1 -1 -1 -0 -0 -0 -1 0 1 1 -1 -2 -2 -2 -2 -1 -0 -1 -3 -3 -1 -0 -1 -2 -2 -1 -1 -2 -3 -6 -5 -4 -2 0 1 1 0 -0 1 1 1 -0 -1 -1 -1 -1 -2 -2 -3 -4 -4 -4 -2 -0 -1 -1 -1 -0 1
-0 -0 -0 -0 -1 -1 -1 -1 -0 -1 -1 -2 -1 -1 -0 -1 -1 0 2 2 0 -1 -2 -3 -2 -1 -1 -1 -3 -4 -3 -1 -0 -0 -1 -1 -1 -1 -3 -5 -6 -4 -3 -1 1 1 1 -0 1 1 2 0 -1 -1 -1 -1 -2 -3 -3 -4 -5 -4 -3 -1 -0 -0 -1 -0 1
0 0 1 1 0 -0 -1 -1 -1 -1 -1 -2 -2 -2 -1 -2 -2 -0 1 1 0 -0 -1 -2 -2 -2 -1 -1 -3 -4 -4 -3 -1 1 1 0 0 -1 -2 -4 -5 -4 -3 -1 0 1 1 -0 0 1 2 1 -0 -0 -1 -1 -3 -4 -4 -4 -4 -4 -4 -2 -0 -0 -1 -1 0
0 0 1 1 1 0 -1 -1 -1 -1 -1 -2 -2 -2 -2 -3 -3 -2 -0 -0 -0 -0 -1 -2 -2 -2 -1 -1 -2 -4 -4 -5 -2 0 1 1 0 0 -1 -3 -4 -4 -3 -1 -0 0 0 0 0 1 2 2 0 -0 -0 -1 -3 -4 -4 -4 -3 -3 -4 -4 -3 -2 -1 -1 -0
Height
1503 1503 1502 1502 1501 1501 1500 1500 1500 1500 1499 1499 1499 1498 1498 1497 1497 1497 1496 1495 1495 1494 1494 1493 1492 1492 1491 1490 1489 1488 1487 1486 1485 1483 1482 1482 1481 1480 1479 1478 1477 1476 1475 1474 1473 1472 1471 1470 1469 1468 1467 1466 1465 1464 1462 1461 1460 1459 1458 1457 1457 1456 1455 1454 1454 1453 1452 1451 1450
1502 1502 1501 1501 1500 1500 1499 1499 1499 1499 1499 1498 1498 1498 1497 1497 1496 1496 1495 1495 1494 1494 1493 1493 1492 1491 1490 1490 1489 1488 1487 1486 1484 1483 1482 1482 1481 1480 1479 1478 1477 1476 1475 1474 1473 1472 1471 1470 1469 1468 1467 1466 1465 1464 1463 1462 1461 1460 1459 1458 1457 1456 1456 1455 1454 1453 1452 1452 1451
1502 1501 1500 1500 1499 1499 1498 1498 1498 1498 1498 1497 1497 1497 1497 1496 1496 1495 1495 1494 1494 1493 1493 1492 1492 1491 1490 1489 1488 1487 1487 1486 1484 1483 1482 1482 1481 1480 1479 1478 1477 1476 1475 1474 1473 1472 1471 1470 1469 1468 1467 1466 1465 1464 1463 1462 1461 1460 1459 1458 1457 1457 1456 1455 1455 1454 1453 1452 1452
1501 1500 1499 1499 1498 1498 1497 1497 1497 1497 1497 1497 1496 1496 1496 1495 1495 1494 1494 1493 1493 1493 1492 1492 1491 1490 1490 1489 1488 1487 1486 1485 1484 1483 1482 1482 1480 1479 1478 1477 1477 1476 1475 1474 1473 1472 1471 1470 1469 1468 1467 1466 1465 1464 1463 1462 1462 1461 1460 1459 1458 1457 1456 1455 1455 1454 1453 1452 1452
1500 1499 1498 1498 1497 1497 1497 1497 1496 1496 1496 1496 1495 1495 1495 1494 1494 1494 1493 1493 1492 1492 1491 1491 1490 1490 1489 1488 1487 1487 1486 1485 1484 1483 1482 1482 1480 1479 1478 1477 1477 1476 1475 1474 1473 1472 1471 1470 1469 1468 1467 1466 1465 1464 1463 1462 1462 1461 1460 1459 1458 1457 1457 1456 1455 1454 1453 1452 1452
1498 1498 1497 1497 1497 1496 1496 1496 1495 1495 1495 1495 1494 1494 1494 1493 1493 1493 1492 1492 1492 1491 1491 1490 1490 1489 1488 1488 1487 1486 1486 1485 1484 1483 1482 1482 1480 1479 1478 1477 1476 1475 1474 1473 1473 1472 1471 1470 1469 1468 1467 1466 1465 1464 1463 1462 1462 1461 1460 1459 1458 1457 1457 1456 1455 1454 1454 1453 1452
1497 1497 1497 1496 1496 1495 1495 1494 1494 1494 1494 1493 1493 1493 1493 1492 1492 1492 1492 1491 1491 1490 1490 1489 1489 1488 1487 1487 1486 1486 1485 1484 1484 1483 1482 1481 1480 1479 1478 1477 1476 1475 1474 1473 1472 1472 1471 1470 1469 1468 1467 1467 1466 1464 1463 1462 1461 1461 1460 1459 1458 1457 1457 1456 1455 1455 1454 1453 1452
1495 1495 1495 1495 1494 1494 1494 1493 1493 1493 1493 1492 1492 1492 1492 1491 1491 1491 1491 1490 1490 1489 1489 1488 1488 1487 1487 1486 1486 1485 1484 1484 1483 1482 1482 1481 1480 1479 1478 1477 1476 1475 1474 1473 1472 1471 1470 1470 1469 1468 1467 1466 1466 1465 1464 1462 1462 1461 1460 1459 1458 1457 1457 1456 1455 1455 1454 1453 1453
1494 1494 1494 1493 1493 1493 1493 1492 1492 1492 1492 1491 1491 1491 1491 1490 1490 1490 1490 1489 1489 1488 1488 1488 1487 1487 1486 1485 1485 1484 1484 1483 1482 1482 1481 1480 1480 1479 1478 1477 1476 1475 1474 1473 1472 1471 1470 1469 1468 1467 1467 1466 1465 1465 1464 1463 1462 1461 1460 1459 1458 1457 1457 1456 1455 1455 1454 1453 1453
1492 1492 1492 1492 1492 1492 1492 1491 1491 1491 1491 1490 1490 1490 1490 1489 1489 1489 1489 1488 1488 1488 1487 1487 1486 1486 1485 1485 1484 1483 1483 1482 1482 1481 1480 1480 1479 1478 1478 1477 1476 1475 1474 1473 1472 1471 1470 1469 1468 1467 1467 1466 1465 1464 1463 1463 1462 1461 1460 1459 1458 1457 1457 1456 1455 1454 1454 1453 1453
1491 1491 1491 1491 1491 1491 1490 1490 1490 1490 1490 1489 1489 1489 1489 1488 1488 1488 1488 1487 1487 1487 1486 1486 1486 1485 1484 1484 1483 1483 1482 1482 1481 1480 1480 1479 1478 1478 1477 1476 1476 1475 1474 1473 1472 1471 1470 1469 1468 1467 1466 1465 1465 1464 1463 1462 1462 1461 1460 1459 1458 1457 1457 1456 1455 1454 1454 1453 1452
1489 1489 1489 1489 1489 1489 1489 1489 1489 1489 1489 1488 1488 1488 1488 1487 1487 1487 1487 1487 1486 1486 1485 1485 1485 1484 1484 1483 1482 1482 1481 1481 1480 1480 1479 1478 1478 1477 1477 1476 1475 1474 1473 1472 1472 1471 1470 1469 1468 1467 1466 1465 1464 1463 1462 1462 1461 1461 1460 1459 1458 1458 1457 1456 1455 1454 1453 1453 1452
1488 1488 1488 1488 1488 1488 1488 1488 1488 1488 1488 1487 1487 1487 1487 1486 1486 1486 1486 1485 1485 1485 1484 1484 1484 1483 1483 1482 1482 1481 1481 1480 1479 1479 1478 1477 1477 1476 1476 1475 1474 1473 1473 1472 1471 1470 1469 1469 1468 1467 1466 1465 1464 1463 1462 1461 1461 1460 1459 1459 1458 1457 1457 1456 1455 1454 1453 1452 1452
1487 1486 1486 1486 1487 1487 1487 1487 1487 1487 1487 1487 1486 1486 1486 1485 1485 1485 1484 1484 1484 1484 1483 1483 1482 1482 1482 1481 1481 1480 1480 1479 1478 1478 1477 1477 1476 1476 1475 1474 1473 1473 1472 1472 1471 1470 1469 1468 1467 1467 1466 1465 1464 1463 1462 1461 1460 1459 1458 1458 1457 1457 1456 1455 1455 1454 1453 1452 1452
1485 1485 1485 1485 1485 1485 1485 1485 1485 1485 1485 1485 1485 1485 1484 1484 1484 1483 1483 1483 1483 1482 1482 1482 1482 1481 1481 1480 1480 1479 1479 1478 1477 1477 1477 1476 1475 1475 1474 1473 1473 1472 1472 1471 1470 1469 1468 1468 1467 1466 1465 1464 1463 1462 1462 1461 1459 1459 1458 1457 1457 1456 1455 1455 1454 1453 1453 1452 1452
1484 1483 1483 1483 1483 1484 1484 1484 1484 1484 1484 1484 1484 1483 1483 1483 1483 1482 1482 1482 1482 1481 1481 1481 1480 1480 1479 1479 1478 1478 1477 1477 1477 1476 1476 1475 1475 1474 1473 1473 1472 1472 1471 1470 1469 1469 1468 1467 1467 1466 1465 1464 1463 1462 1461 1460 1459 1458 1457 1457 1456 1455 1455 1454 1453 1453 1452 1452 1451
1482 1482 1482 1482 1482 1482 1482 1482 1482 1482 1482 1482 1482 1482 1482 1482 1482 1481 1481 1481 1480 1480 1480 1479 1479 1479 1478 1478 1477 1477 1476 1476 1476 1475 1474 1474 1473 1473 1472 1472 1471 1471 1470 1469 1468 1468 1467 1467 1466 1465 1464 1463 1462 1462 1461 1460 1459 1458 1457 1456 1455 1454 1454 1453 1452 1452 1452 1451 1450
1481 1481 1481 1481 1481 1481 1481 1482 1482 1482 1482 1481 1481 1481 1481 1481 1480 1480 1480 1479 1479 1478 1478 1478 1477 1477 1477 1477 1476 1476 1475 1475 1474 1474 1473 1473 1472 1472 1471 1471 1470 1470 1469 1468 1468 1467 1466 1466 1465 1464 1463 1463 1462 1461 1460 1459 1458 1457 1456 1455 1454 1453 1453 1452 1452 1451 1451 1450 1450
1480 1480 1480 1480 1480 1480 1480 1480 1480 1480 1480 1480 1480 1480 1480 1480 1479 1479 1478 1478 1478 1477 1477 1477 1476 1476 1476 1475 1475 1474 1474 1473 1473 1472 1472 1472 1471 1471 1470 1470 1469 1468 1468 1467 1467 1466 1465 1465 1464 1463 1462 1462 1461 1460 1459 1458 1457 1457 1456 1455 1454 1453 1452 1451 1451 1450 1450 1449 1449
1479 1479 1479 1480 1480 1480 1480 1479 1479 1479 1479 1479 1479 1479 1479 1478 1478 1478 1477 1477 1477 1476 1476 1475 1475 1474 1474 1474 1473 1473 1472 1472 1472 1471 1471 1470 1470 1469 1469 1468 1468 1467 1467 1466 1465 1464 1464 1463 1462 1462 1461 1461 1460 1459 1458 1457 1457 1456 1455 1454 1453 1452 1451 1451 1450 1449 1449 1448 1448
1478 1478 1478 1479 1479 1479 1479 1479 1478 1478 1478 1478 1478 1478 1478 1477 1477 1477 1476 1476 1476 1475 1475 1474 1474 1473 1473 1472 1472 1472 1471 1471 1470 1470 1469 1469 1468 1468 1467 1467 1466 1466 1465 1464 1464 1463 1462 1462 1461 1460 1460 1459 1458 1458 1457 1456 1455 1455 1454 1453 1452 1452 1451 1450 1449 1448 1448 1447 1447
1477 1477 1478 1478 1478 1478 1478 1477 1477 1477 1477 1477 1477 1477 1477 1476 1476 1475 1475 1475 1474 1474 1473 1473 1472 1472 1471 1471 1470 1470 1470 1469 1469 1468 1468 1467 1467 1466 1466 1465 1464 1464 1463 1463 1462 1461 1460 1460 1459 1459 1458 1457 1457 1456 1456 1455 1454 1453 1452 1452 1451 1451 1450 1449 1448 1447 1447 1446 1446
1477 1477 1477 1477 1477 1477 1477 1477 1477 1476 1476 1476 1476 1476 1475 1475 1474 1474 1474 1473 1473 1472 1472 1471 1471 1470 1470 1469 1469 1468 1468 1467 1467 1467 1466 1466 1465 1464 1464 1463 1463 1462 1462 1461 1460 1459 1458 1458 1457 1457 1456 1456 1455 1454 1454 1453 1452 1452 1451 1450 1450 1449 1448 1448 1447 1447 1446 1445 1444
1476 1476 1476 1476 1476 1476 1475 1475 1475 1475 1475 1475 1474 1474 1474 1473 1473 1472 1472 1472 1471 1471 1470 1470 1469 1469 1468 1467 1467 1467 1466 1465 1465 1464 1464 1464 1463 1462 1462 1462 1461 1460 1460 1459 1458 1457 1457 1456 1455 1455 1454 1454 1453 1453 1452 1452 1451 1450 1449 1448 1448 1447 1447 1447 1446 1445 1445 1444 1443
1475 1475 1475 1475 1474 1474 1474 1474 1474 1474 1473 1473 1473 1472 1472 1472 1471 1471 1470 1470 1470 1469 1468 1468 1467 1467 1467 1466 1465 1465 1464 1463 1463 1462 1462 1462 1461 1461 1460 1460 1459 1459 1458 1457 1457 1456 1455 1454 1453 1453 1452 1452 1451 1451 1450 1450 1449 1448 1448 1447 1446 1446 1445 1445 1444 1444 1443 1443 1442
1474 1474 1474 1473 1473 1473 1473 1472 1472 1472 1472 1472 1471 1471 1471 1470 1470 1469 1469 1468 1468 1467 1467 1467 1466 1465 1465 1464 1464 1463 1462 1462 1461 1460 1460 1459 1459 1459 1458 1458 1457 1457 1456 1456 1455 1454 1453 1453 1452 1451 1450 1449 1449 1448 1448 1447 1447 1447 1446 1445 1445 1444 1443 1442 1442 1442 1442 1442 1441
1473 1473 1472 1472 1472 1472 1472 1471 1471 1471 1470 1470 1470 1469 1469 1468 1468 1467 1467 1467 1466 1466 1465 1465 1464 1464 1463 1462 1462 1461 1461 1460 1459 1458 1458 1457 1457 1456 1456 1455 1455 1455 1454 1453 1453 1452 1452 1451 1450 1449 1448 1447 1447 1446 1446 1445 1445 1445 1444 1443 1443 1442 1442 1441 1440 1440 1440 1440 1439
1472 1472 1471 1471 1471 1471 1470 1470 1469 1469 1469 1468 1468 1468 1467 1467 1466 1466 1465 1465 1464 1464 1463 1463 1462 1462 1461 1461 1460 1459 1459 1458 1457 1457 1456 1455 1455 1454 1453 1453 1452 1452 1452 1451 1451 1450 1449 1448 1448 1447 1447 1446 1445 1444 1443 1443 1442 1442 1442 1442 1441 1441 1440 1439 1439 1438 1438 1438 1437
1471 1470 1470 1470 1469 1469 1469 1468 1468 1468 1467 1467 1467 1466 1466 1466 1465 1464 1464 1463 1463 1462 1462 1461 1461 1460 1460 1459 1458 1457 1457 1456 1455 1455 1454 1453 1452 1452 1451 1451 1450 1450 1450 1449 1448 1448 1447 1446 1446 1445 1444 1444 1443 1442 1441 1441 1440 1440 1440 1439 1439 1439 1438 1437 1437 1437 1436 1436 1435
1470 1469 1469 1468 1468 1468 1467 1467 1467 1466 1466 1466 1465 1465 1464 1464 1464 1463 1462 1462 1462 1461 1460 1460 1459 1459 1458 1457 1457 1456 1455 1455 1454 1453 1452 1451 1451 1450 1449 1449 1448 1448 1447 1447 1446 1446 1445 1444 1444 1443 1442 1442 1441 1440 1439 1438 1438 1438 1437 1437 1437 1437 1436 1436 1435 1435 1434 1434 1433
1469 1468 1468 1467 1467 1467 1466 1466 1465 1465 1464 1464 1464 1463 1463 1462 1462 1462 1461 1461 1460 1459 1459 1458 1458 1457 1457 1456 1455 1454 1454 1453 1452 1452 1451 1450 1449 1448 1447 1447 1447 1446 1446 1445 1444 1444 1443 1442 1442 1441 1441 1440 1439 1438 1437 1437 1436 1436 1435 1435 1435 1435 1434 1434 1433 1433 1433 1432 1432
1468 1467 1467 1466 1465 1465 1465 1464 1464 1463 1463 1462 1462 1462 1462 1461 1461 1460 1460 1459 1458 1458 1457 1457 1456 1456 1455 1454 1454 1453 1452 1452 1451 1450 1449 1448 1447 1447 1446 1445 1445 1445 1444 1443 1442 1442 1441 1441 1440 1439 1439 1438 1437 1436 1435 1435 1434 1433 1433 1432 1432 1432 1432 1432 1432 1431 1431 1431 1430
1466 1466 1465 1464 1464 1463 1463 1462 1462 1462 1461 1461 1461 1460 1460 1459 1459 1458 1458 1457 1457 1456 1456 1455 1455 1454 1453 1452 1452 1451 1451 1450 1449 1448 1447 1447 1446 1445 1444 1444 1443 1443 1442 1442 1441 1440 1439 1439 1438 1437 1437 1436 1435 1434 1434 1433 1432 1432 1431 1430 1430 1430 1430 1430 1430 1429 1429 1429 1428
1465 1464 1464 1463 1462 1462 1462 1461 1460 1460 1459 1459 1459 1458 1458 1457 1457 1457 1456 1456 1455 1454 1454 1453 1453 1452 1451 1451 1450 1449 1448 1448 1447 1447 1446 1445 1444 1443 1443 1442 1442 1442 1441 1440 1439 1438 1438 1437 1437 1436 1435 1434 1433 1433 1432 1431 1430 1430 1429 1428 1428 1428 1428 1428 1427 1427 1427 1427 1426
1463 1462 1462 1461 1461 1460 1460 1459 1458 1458 1457 1457 1457 1457 1456 1456 1455 1455 1454 1453 1453 1452 1452 1451 1451 1450 1450 1449 1448 1447 1447 1446 1446 1445 1444 1444 1443 1442 1441 1440 1440 1440 1440 1439 1438 1437 1436 1436 1435 1434 1433 1432 1432 1431 1430 1429 1429 1428 1427 1427 1426 1426 1426 1426 1425 1425 1425 1425 1424
1462 1461 1460 1459 1459 1458 1458 1457 1457 1456 1456 1455 1455 1454 1454 1454 1453 1453 1452 1452 1451 1450 1450 1449 1449 1448 1448 1447 1447 1446 1445 1444 1444 1443 1442 1442 1441 1440 1439 1438 1438 1438 1438 1437 1437 1436 1435 1434 1433 1432 1431 1430 1429 1429 1428 1427 1427 1426 1426 1425 1424 1424 1424 1423 1423 1423 1422 1422 1422
1460 1459 1458 1457 1457 1457 1456 1456 1455 1454 1454 1453 1453 1452 1452 1452 1451 1451 1450 1450 1449 1448 1447 1447 1447 1446 1446 1445 1444 1444 1443 1443 1442 1441 1441 1440 1439 1438 1437 1437 1436 1436 1436 1436 1435 1434 1433 1432 1432 1431 1429 1428 1427 1427 1426 1425 1425 1424 1423 1423 1422 1422 1422 1422 1421 1421 1420 1420 1420
1458 1457 1457 1456 1455 1455 1454 1454 1453 1452 1452 1451 1451 1451 1450 1450 1449 1448 1448 1447 1447 1446 1445 1445 1445 1444 1443 1443 1442 1442 1441 1441 1440 1439 1439 1438 1437 1437 1436 1434 1434 1434 1434 1434 1433 1432 1432 1431 1430 1429 1428 1427 1426 1425 1424 1423 1422 1422 1421 1421 1420 1420 1420 1420 1419 1419 1418 1418 1418
1457 1456 1455 1454 1453 1453 1452 1452 1451 1450 1450 1449 1449 1448 1448 1447 1447 1447 1446 1446 1445 1444 1443 1442 1442 1442 1441 1441 1440 1439 1439 1439 1438 1438 1437 1436 1435 1435 1434 1433 1432 1432 1432 1432 1431 1430 1430 1429 1428 1427 1426 1425 1424 1423 1422 1421 1420 1419 1419 1418 1418 1418 1417 1417 1417 1417 1416 1416 1416
1455 1454 1453 1452 1452 1451 1450 1450 1449 1448 1448 1447 1447 1446 1446 1446 1445 1444 1444 1444 1443 1442 1441 1441 1440 1439 1439 1438 1438 1437 1437 1436 1436 1436 1435 1434 1433 1432 1432 1431 1430 1430 1430 1430 1429 1428 1428 1427 1426 1425 1424 1423 1422 1421 1420 1419 1418 1417 1417 1416 1416 1415 1415 1415 1415 1414 1414 1413 1413
1453 1452 1452 1451 1450 1449 1449 1448 1447 1447 1446 1446 1445 1444 1444 1443 1443 1442 1442 1442 1441 1440 1439 1439 1438 1437 1437 1436 1436 1435 1434 1434 1434 1433 1433 1432 1431 1431 1430 1429 1428 1428 1427 1427 1427 1427 1426 1425 1424 1424 1423 1422 1421 1419 1418 1417 1416 1415 1414 1414 1414 1413 1412 1412 1412 1412 1412 1411 1411